Zurück zum Katalog

STARLINK-34296

AktivKommunikationVLEO
NORAD 64216·PAYLOAD·🇺🇸 United States

Gestartet May 31, 2025 von Vandenberg Space Force Base

Loading…

Nächste Überflüge (nächste 24 Stunden)

TLE

AktuellSource: CelesTrak SupGP

Epoche: Sep 15, 2026, 02:18 UTC

1 64216C 25117P   26258.09631944 -.00030709  00000+0 -90752-3 0  2588
2 64216  53.1587 238.8799 0001536  96.3144  61.4342 15.34398420    18

Verfolge STARLINK-34296 in Echtzeit mit AllMySat

Download on the App Store